TimeEDT,TemperatureF,Dew PointF,Humidity,Sea Level PressureIn,VisibilityMPH,Wind Direction,Wind SpeedMPH,Gust SpeedMPH,PrecipitationIn,Events,Conditions,WindDirDegrees,DateUTC
12:05 AM,71.6,69.8,94,30.00,1.8,Calm,Calm,-,N/A,,Partly Cloudy,0,2013-08-27 04:05:00
12:07 AM,71.6,69.8,94,30.00,4.0,Calm,Calm,-,N/A,,Partly Cloudy,0,2013-08-27 04:07:00
12:24 AM,69.8,69.8,100,30.01,1.2,Calm,Calm,-,N/A,,Clear,0,2013-08-27 04:24:00
12:32 AM,69.8,69.8,100,30.01,0.5,Calm,Calm,-,N/A,Fog,Fog,0,2013-08-27 04:32:00
12:41 AM,69.8,69.8,100,30.01,1.5,Calm,Calm,-,N/A,,Clear,0,2013-08-27 04:41:00
12:48 AM,69.8,69.8,100,30.01,3.0,Calm,Calm,-,N/A,,Clear,0,2013-08-27 04:48:00
12:53 AM,69.1,68.0,96,29.99,2.5,Calm,Calm,-,N/A,,Clear,0,2013-08-27 04:53:00
1:07 AM,71.6,71.6,100,30.01,4.0,Calm,Calm,-,N/A,,Clear,0,2013-08-27 05:07:00
1:45 AM,69.8,69.8,100,30.01,2.0,Calm,Calm,-,N/A,,Clear,0,2013-08-27 05:45:00
1:53 AM,71.1,69.1,93,29.98,3.0,Calm,Calm,-,N/A,,Clear,0,2013-08-27 05:53:00
2:53 AM,71.1,69.1,93,29.96,4.0,WSW,4.6,-,N/A,,Scattered Clouds,240,2013-08-27 06:53:00
3:53 AM,72.0,70.0,93,29.96,6.0,WSW,5.8,-,N/A,,Mostly Cloudy,240,2013-08-27 07:53:00
4:53 AM,71.1,69.1,93,29.95,6.0,WSW,5.8,-,N/A,,Clear,240,2013-08-27 08:53:00
5:53 AM,71.1,69.1,93,29.94,5.0,WSW,4.6,-,N/A,,Partly Cloudy,240,2013-08-27 09:53:00
6:53 AM,71.1,69.1,93,29.96,5.0,West,5.8,-,N/A,Thunderstorm,Mostly Cloudy,260,2013-08-27 10:53:00
7:13 AM,73.4,69.8,88,30.01,3.0,NNW,10.4,19.6,0.06,Rain-Thunderstorm,Thunderstorms and Rain,330,2013-08-27 11:13:00
7:36 AM,73.4,69.8,88,30.01,4.0,NNW,18.4,25.3,0.12,Rain-Thunderstorm,Heavy Rain,340,2013-08-27 11:36:00
7:46 AM,73.4,69.8,88,30.03,2.0,WNW,12.7,21.9,0.26,Rain-Thunderstorm,Heavy Thunderstorms and Rain,300,2013-08-27 11:46:00
7:53 AM,72.0,70.0,93,30.01,2.5,NW,10.4,20.7,0.32,Rain-Thunderstorm,Thunderstorms and Rain,310,2013-08-27 11:53:00
8:29 AM,71.6,69.8,94,30.03,2.5,NW,9.2,-,0.05,Rain,Rain,320,2013-08-27 12:29:00
8:53 AM,71.1,69.1,93,29.98,2.5,North,5.8,-,0.16,Rain,Rain,10,2013-08-27 12:53:00
9:00 AM,71.6,69.8,94,29.99,6.0,NNE,4.6,-,0.01,Rain,Light Rain,30,2013-08-27 13:00:00
9:53 AM,73.0,69.1,87,29.95,10.0,Calm,Calm,-,0.01,,Mostly Cloudy,0,2013-08-27 13:53:00
10:53 AM,73.0,71.1,93,29.96,10.0,SSW,8.1,-,N/A,,Partly Cloudy,210,2013-08-27 14:53:00
11:00 AM,73.4,71.6,94,29.98,10.0,SW,10.4,-,N/A,,Partly Cloudy,230,2013-08-27 15:00:00
11:53 AM,75.0,72.0,90,29.98,10.0,SW,9.2,-,N/A,,Clear,230,2013-08-27 15:53:00
12:53 PM,77.0,72.0,84,29.96,10.0,SSW,12.7,20.7,N/A,,Clear,210,2013-08-27 16:53:00
1:53 PM,79.0,73.0,82,29.94,10.0,SSW,9.2,-,N/A,,Partly Cloudy,200,2013-08-27 17:53:00
2:53 PM,81.0,73.9,79,29.93,10.0,SW,6.9,-,N/A,,Clear,230,2013-08-27 18:53:00
3:53 PM,82.0,73.0,74,29.90,10.0,WSW,8.1,-,N/A,,Clear,240,2013-08-27 19:53:00
4:14 PM,78.8,73.4,83,29.91,1.8,SSW,11.5,-,0.06,Rain,Heavy Rain,200,2013-08-27 20:14:00
4:22 PM,80.6,75.2,84,29.91,3.0,SSW,8.1,-,0.06,Rain,Light Rain,210,2013-08-27 20:22:00
4:53 PM,82.9,75.0,77,29.89,8.0,SW,6.9,-,0.06,,Partly Cloudy,220,2013-08-27 20:53:00
5:53 PM,82.9,75.9,79,29.88,7.0,SW,6.9,-,N/A,,Clear,220,2013-08-27 21:53:00
6:53 PM,82.0,75.0,79,29.87,6.0,SSW,4.6,-,N/A,,Haze,200,2013-08-27 22:53:00
7:53 PM,80.1,75.9,87,29.88,7.0,Calm,Calm,-,N/A,,Mostly Cloudy,0,2013-08-27 23:53:00
8:53 PM,78.1,75.9,93,29.89,4.0,SE,3.5,-,0.02,Rain,Light Rain,130,2013-08-28 00:53:00
9:53 PM,79.0,75.9,90,29.88,4.0,South,4.6,-,N/A,,Mostly Cloudy,180,2013-08-28 01:53:00
10:53 PM,78.1,75.0,90,29.86,6.0,SW,5.8,-,0.00,,Mostly Cloudy,220,2013-08-28 02:53:00
11:43 PM,78.8,75.2,89,29.87,6.0,SSW,3.5,-,0.00,Rain-Thunderstorm,Light Thunderstorms and Rain,210,2013-08-28 03:43:00
11:53 PM,78.1,75.0,90,29.86,6.0,SSW,3.5,-,0.01,Rain-Thunderstorm,Light Rain,210,2013-08-28 03:53:00